Flag for Germany Weather past 2 weeks in Herten, North Rhine-Westphalia, Germany

Now
69 °F

Overcast.


Feels Like: 69 °F
Forecast: 63 / 83 °F
Wind: 3 mph from South

Location: Essen

Current Time: Aug 1, 2014 at 9:58:47 AM

Latest Report: Aug 1, 2014 at 9:00 AM


Visibility: 19 mi

Pressure: 29.87 "Hg

Humidity: 63%

Dew point: 56 °F

Location of HertenLocation

Historic Weather in Herten — Graph

°F

Herten temperature yesterday

Maximum temperature yesterday: 76 °F (at 7:00 PM)
Minimum temperature yesterday: 56 °F (at 7:00 AM)
Average temperature yesterday: 67 °F

Past Weeks' High & Low Weather Summary

 TemperatureHumidityPressure
High92 °F (Jul 19, 5:00 PM)100% (Jul 26, 6:00 AM)30.18 "Hg (Jul 26, 6:00 AM)
Low56 °F (Jul 31, 7:00 AM)27% (Jul 19, 1:00 PM)29.75 "Hg (Jul 20, 5:00 AM)
Average71 °F70%29.93 "Hg
* Reported Jul 17 9:00 AM — Aug 1 9:00 AM, Herten, Weather by CustomWeather, © 2014

Note: Actual official high and low records may vary slightly from our data, if they occured in-between our weather recording intervals... More about our weather records

Advertising

Herten weather history for previous 24 hours

 ConditionsComfort  
Time TempWeatherWind HumidityBarometerVisibility
9:00 AM
Aug 1
69 °FOvercast.3 mph63%29.87 "Hg19 mi
8:00 AM66 °FOvercast.2 mph68%29.87 "Hg17 mi
7:00 AM64 °FPartly sunny.2 mph70%29.88 "Hg17 mi
6:00 AM64 °FPassing clouds.3 mph69%29.88 "Hg18 mi
5:00 AM64 °FOvercast.3 mph67%29.88 "Hg18 mi
4:00 AM63 °FOvercast.2 mph72%29.89 "Hg16 mi
3:00 AM63 °FOvercast.2 mph75%29.90 "Hg14 mi
2:00 AM64 °FOvercast.2 mph71%29.91 "Hg16 mi
1:00 AM66 °FOvercast.2 mph66%29.92 "Hg16 mi
12:00 AM65 °FOvercast.2 mph72%29.92 "Hg15 mi
11:00 PM
Jul 31
68 °FOvercast.2 mph66%29.93 "Hg14 mi
10:00 PM68 °FOvercast.2 mph57%29.93 "Hg16 mi
9:00 PM71 °FOvercast.No wind50%29.92 "Hg19 mi
8:00 PM75 °FPartly sunny.1 mph39%29.92 "Hg22 mi
7:00 PM76 °FSunny.2 mph37%29.93 "Hg22 mi
6:00 PM76 °FPartly sunny.1 mph37%29.94 "Hg19 mi
5:00 PM76 °FScattered clouds.2 mph40%29.95 "Hg19 mi
4:00 PM76 °FSunny.2 mph46%29.96 "Hg19 mi
3:00 PM74 °FSunny.3 mph50%29.97 "Hg15 mi
2:00 PM73 °FSunny.3 mph51%29.99 "Hg13 mi
1:00 PM71 °FPassing clouds.3 mph56%30.00 "Hg14 mi
12:00 PM69 °FScattered clouds.3 mph60%30.01 "Hg12 mi
11:00 AM67 °FPassing clouds.2 mph65%30.01 "Hg12 mi
10:00 AM64 °FPassing clouds.2 mph75%30.01 "Hg10 mi
9:00 AM63 °FSunny.2 mph81%30.01 "Hg7 mi
Weather by CustomWeather, © 2014

See weather overviewHow to use our weather pages